Time,TemperatureF,DewpointF,PressureIn,WindDirection,WindDirectionDegrees,WindSpeedMPH,WindSpeedGustMPH,Humidity,HourlyPrecipIn,Conditions,Clouds,dailyrainin,SoftwareType,DateUTC
2013-01-29 00:03:00,58.0,51.0,30.09,SSW,210,3.0,-999.0,77,-99.99,,,-99.99,,2013-01-29 05:03:00,
2013-01-29 00:12:00,58.0,51.0,30.09,SSW,210,3.0,-999.0,77,-99.99,,,-99.99,,2013-01-29 05:12:00,
2013-01-29 00:22:00,57.0,50.0,30.07,SSW,200,3.0,-999.0,77,-99.99,,,-99.99,,2013-01-29 05:22:00,
2013-01-29 00:32:00,57.0,50.0,30.08,SSW,205,3.0,-999.0,78,-99.99,,,-99.99,,2013-01-29 05:32:00,
2013-01-29 00:42:00,57.0,50.0,30.08,SSW,205,3.0,-999.0,78,-99.99,,,-99.99,,2013-01-29 05:42:00,
2013-01-29 00:52:00,57.0,50.0,30.07,SSW,202,2.0,-999.0,78,-99.99,,,-99.99,,2013-01-29 05:52:00,
2013-01-29 01:02:00,57.0,50.0,30.07,SW,218,3.0,-999.0,77,-99.99,,,-99.99,,2013-01-29 06:02:00,
2013-01-29 01:11:00,57.0,50.0,30.07,SW,218,3.0,-999.0,77,-99.99,,,-99.99,,2013-01-29 06:11:00,
2013-01-29 01:21:00,57.0,50.0,30.07,SW,218,3.0,-999.0,77,-99.99,,,-99.99,,2013-01-29 06:21:00,
2013-01-29 01:32:00,58.0,51.0,30.07,SW,215,4.0,-999.0,77,-99.99,,,-99.99,,2013-01-29 06:32:00,
2013-01-29 01:42:00,58.0,51.0,30.07,SW,215,4.0,-999.0,77,-99.99,,,-99.99,,2013-01-29 06:42:00,
2013-01-29 01:52:00,58.0,50.0,30.06,SSW,211,3.0,-999.0,76,-99.99,,,-99.99,,2013-01-29 06:52:00,
2013-01-29 02:02:00,58.0,50.0,30.07,SW,221,1.0,-999.0,76,-99.99,,,-99.99,,2013-01-29 07:02:00,
2013-01-29 02:11:00,58.0,50.0,30.07,SW,221,1.0,-999.0,76,-99.99,,,-99.99,,2013-01-29 07:11:00,
2013-01-29 02:21:00,58.0,50.0,30.06,SSW,213,1.0,-999.0,76,-99.99,,,-99.99,,2013-01-29 07:21:00,
2013-01-29 02:32:00,58.0,50.0,30.06,SW,214,2.0,-999.0,76,-99.99,,,-99.99,,2013-01-29 07:32:00,
2013-01-29 02:42:00,58.0,50.0,30.06,SW,214,2.0,-999.0,76,-99.99,,,-99.99,,2013-01-29 07:42:00,
2013-01-29 02:52:00,58.0,50.0,30.06,South,186,2.0,-999.0,76,-99.99,,,-99.99,,2013-01-29 07:52:00,
2013-01-29 03:02:00,58.0,51.0,30.06,SSW,211,2.0,-999.0,77,-99.99,,,-99.99,,2013-01-29 08:02:00,
2013-01-29 03:11:00,58.0,51.0,30.06,SSW,211,2.0,-999.0,77,-99.99,,,-99.99,,2013-01-29 08:11:00,
2013-01-29 03:21:00,58.0,51.0,30.06,SSW,210,2.0,-999.0,77,-99.99,,,-99.99,,2013-01-29 08:21:00,
2013-01-29 03:32:00,58.0,50.0,30.05,SW,216,2.0,-999.0,76,-99.99,,,-99.99,,2013-01-29 08:32:00,
2013-01-29 03:42:00,58.0,50.0,30.05,SW,216,2.0,-999.0,76,-99.99,,,-99.99,,2013-01-29 08:42:00,
2013-01-29 03:52:00,58.0,50.0,30.05,SSW,207,1.0,-999.0,76,-99.99,,,-99.99,,2013-01-29 08:52:00,
2013-01-29 04:02:00,58.0,51.0,30.05,SSW,209,2.0,-999.0,77,-99.99,,,-99.99,,2013-01-29 09:02:00,
2013-01-29 04:11:00,58.0,51.0,30.05,SSW,209,2.0,-999.0,77,-99.99,,,-99.99,,2013-01-29 09:11:00,
2013-01-29 04:21:00,58.0,51.0,30.04,SSW,205,1.0,-999.0,77,-99.99,,,-99.99,,2013-01-29 09:21:00,
2013-01-29 04:32:00,58.0,50.0,30.04,SW,226,3.0,-999.0,76,-99.99,,,-99.99,,2013-01-29 09:32:00,
2013-01-29 04:42:00,58.0,50.0,30.04,SW,226,3.0,-999.0,76,-99.99,,,-99.99,,2013-01-29 09:42:00,
2013-01-29 04:51:00,58.0,50.0,30.03,South,186,6.0,-999.0,75,-99.99,,,-99.99,,2013-01-29 09:51:00,
2013-01-29 05:02:00,58.0,50.0,30.03,SW,229,4.0,-999.0,75,-99.99,,,-99.99,,2013-01-29 10:02:00,
2013-01-29 05:11:00,58.0,50.0,30.03,SW,229,4.0,-999.0,75,-99.99,,,-99.99,,2013-01-29 10:11:00,
2013-01-29 05:21:00,58.0,50.0,30.03,SW,215,5.0,-999.0,75,-99.99,,,-99.99,,2013-01-29 10:21:00,
2013-01-29 05:32:00,58.0,50.0,30.02,SW,232,4.0,-999.0,75,-99.99,,,-99.99,,2013-01-29 10:32:00,
2013-01-29 05:42:00,58.0,50.0,30.02,SW,232,4.0,-999.0,75,-99.99,,,-99.99,,2013-01-29 10:42:00,
2013-01-29 05:52:00,58.0,50.0,30.02,SSW,211,3.0,-999.0,76,-99.99,,,-99.99,,2013-01-29 10:52:00,
2013-01-29 06:02:00,58.0,50.0,30.01,SW,216,5.0,-999.0,76,-99.99,,,-99.99,,2013-01-29 11:02:00,
2013-01-29 06:12:00,58.0,50.0,30.01,SW,216,5.0,-999.0,76,-99.99,,,-99.99,,2013-01-29 11:12:00,
2013-01-29 06:22:00,58.0,50.0,30.01,SW,236,4.0,-999.0,76,-99.99,,,-99.99,,2013-01-29 11:22:00,
2013-01-29 06:32:00,58.0,51.0,30.01,SSW,205,3.0,-999.0,77,-99.99,,,-99.99,,2013-01-29 11:32:00,
2013-01-29 06:42:00,58.0,51.0,30.01,SSW,205,3.0,-999.0,77,-99.99,,,-99.99,,2013-01-29 11:42:00,
2013-01-29 06:52:00,58.0,51.0,30.01,SSW,200,3.0,-999.0,77,-99.99,,,-99.99,,2013-01-29 11:52:00,
2013-01-29 07:03:00,58.0,51.0,30.01,SSW,200,3.0,-999.0,77,-99.99,,,-99.99,,2013-01-29 12:03:00,
2013-01-29 07:12:00,58.0,51.0,30.01,SSW,200,3.0,-999.0,77,-99.99,,,-99.99,,2013-01-29 12:12:00,
2013-01-29 07:22:00,59.0,51.0,30.01,SSW,192,6.0,-999.0,76,-99.99,,,-99.99,,2013-01-29 12:22:00,
2013-01-29 07:33:00,59.0,51.0,30.01,SW,215,5.0,-999.0,76,-99.99,,,-99.99,,2013-01-29 12:33:00,
2013-01-29 07:43:00,59.0,51.0,30.01,SW,215,5.0,-999.0,76,-99.99,,,-99.99,,2013-01-29 12:43:00,
2013-01-29 07:52:00,59.0,52.0,30.01,SSW,198,4.0,-999.0,77,-99.99,,,-99.99,,2013-01-29 12:52:00,
2013-01-29 08:02:00,59.0,52.0,30.01,SSW,200,4.0,-999.0,77,-99.99,,,-99.99,,2013-01-29 13:02:00,
2013-01-29 08:12:00,59.0,52.0,30.01,SSW,200,4.0,-999.0,77,-99.99,,,-99.99,,2013-01-29 13:12:00,
2013-01-29 08:22:00,59.0,52.0,30.01,SSW,196,6.0,-999.0,77,-99.99,,,-99.99,,2013-01-29 13:22:00,
2013-01-29 08:32:00,59.0,52.0,30.01,SSW,208,4.0,-999.0,77,-99.99,,,-99.99,,2013-01-29 13:32:00,
2013-01-29 08:43:00,59.0,52.0,30.01,SSW,208,4.0,-999.0,77,-99.99,,,-99.99,,2013-01-29 13:43:00,
2013-01-29 08:52:00,59.0,52.0,30.01,SW,217,5.0,-999.0,77,-99.99,,,-99.99,,2013-01-29 13:52:00,
2013-01-29 09:02:00,60.0,52.0,30.01,South,187,4.0,-999.0,76,-99.99,,,-99.99,,2013-01-29 14:02:00,
2013-01-29 09:12:00,60.0,52.0,30.01,South,180,5.0,-999.0,75,-99.99,,,-99.99,,2013-01-29 14:12:00,
2013-01-29 09:22:00,60.0,52.0,30.01,South,180,5.0,-999.0,75,-99.99,,,-99.99,,2013-01-29 14:22:00,
2013-01-29 09:33:00,60.0,52.0,30.01,SW,225,2.0,-999.0,75,-99.99,,,-99.99,,2013-01-29 14:33:00,
2013-01-29 09:43:00,60.0,52.0,30.01,SW,225,2.0,-999.0,75,-99.99,,,-99.99,,2013-01-29 14:43:00,
2013-01-29 09:52:00,61.0,53.0,30.01,SW,227,3.0,-999.0,75,-99.99,,,-99.99,,2013-01-29 14:52:00,
2013-01-29 10:03:00,61.0,53.0,30.01,SSW,211,6.0,-999.0,75,-99.99,,,-99.99,,2013-01-29 15:03:00,
2013-01-29 10:12:00,61.0,53.0,30.01,SSW,211,6.0,-999.0,75,-99.99,,,-99.99,,2013-01-29 15:12:00,
2013-01-29 10:22:00,62.0,54.0,30.01,SW,226,4.0,-999.0,75,-99.99,,,-99.99,,2013-01-29 15:22:00,
2013-01-29 10:33:00,62.0,54.0,30.02,SW,221,7.0,-999.0,75,-99.99,,,-99.99,,2013-01-29 15:33:00,
2013-01-29 10:43:00,62.0,54.0,30.02,SW,221,7.0,-999.0,75,-99.99,,,-99.99,,2013-01-29 15:43:00,
2013-01-29 10:53:00,64.0,55.0,30.02,WSW,242,5.0,-999.0,73,-99.99,,,-99.99,,2013-01-29 15:53:00,
2013-01-29 11:03:00,64.0,55.0,30.02,WSW,238,6.0,-999.0,72,-99.99,,,-99.99,,2013-01-29 16:03:00,
2013-01-29 11:12:00,64.0,55.0,30.02,WSW,238,6.0,-999.0,72,-99.99,,,-99.99,,2013-01-29 16:12:00,
2013-01-29 11:23:00,65.0,55.0,30.01,SSW,210,7.0,-999.0,71,-99.99,,,-99.99,,2013-01-29 16:23:00,
2013-01-29 11:33:00,66.0,56.0,30.00,SW,224,7.0,-999.0,70,-99.99,,,-99.99,,2013-01-29 16:33:00,
2013-01-29 11:43:00,66.0,56.0,30.00,SW,224,7.0,-999.0,70,-99.99,,,-99.99,,2013-01-29 16:43:00,
2013-01-29 11:52:00,67.0,56.0,29.99,SW,232,6.0,-999.0,68,-99.99,,,-99.99,,2013-01-29 16:52:00,
2013-01-29 12:03:00,67.0,56.0,29.98,SW,235,6.0,-999.0,69,-99.99,,,-99.99,,2013-01-29 17:03:00,
2013-01-29 12:12:00,67.0,56.0,29.98,SW,235,6.0,-999.0,69,-99.99,,,-99.99,,2013-01-29 17:12:00,
2013-01-29 12:22:00,68.0,56.0,29.98,SW,225,7.0,-999.0,66,-99.99,,,-99.99,,2013-01-29 17:22:00,
2013-01-29 12:33:00,69.0,57.0,29.97,SSW,211,6.0,-999.0,65,-99.99,,,-99.99,,2013-01-29 17:33:00,
2013-01-29 12:42:00,69.0,57.0,29.97,SSW,211,6.0,-999.0,65,-99.99,,,-99.99,,2013-01-29 17:42:00,
2013-01-29 12:52:00,69.0,56.0,29.96,SSE,153,7.0,-999.0,63,-99.99,,,-99.99,,2013-01-29 17:52:00,
2013-01-29 13:04:00,70.0,56.0,29.95,SSW,212,6.0,-999.0,62,-99.99,,,-99.99,,2013-01-29 18:04:00,
2013-01-29 13:12:00,70.0,56.0,29.95,SSW,212,6.0,-999.0,62,-99.99,,,-99.99,,2013-01-29 18:12:00,
2013-01-29 13:22:00,70.0,55.0,29.93,South,177,7.0,-999.0,60,-99.99,,,-99.99,,2013-01-29 18:22:00,
2013-01-29 13:33:00,70.0,56.0,29.92,SSE,161,8.0,-999.0,61,-99.99,,,-99.99,,2013-01-29 18:33:00,
2013-01-29 13:42:00,70.0,56.0,29.92,SSE,161,8.0,-999.0,61,-99.99,,,-99.99,,2013-01-29 18:42:00,
2013-01-29 13:52:00,71.0,56.0,29.91,South,183,6.0,-999.0,60,-99.99,,,-99.99,,2013-01-29 18:52:00,
2013-01-29 14:03:00,70.0,56.0,29.91,SSW,192,8.0,-999.0,61,-99.99,,,-99.99,,2013-01-29 19:03:00,
2013-01-29 14:12:00,70.0,56.0,29.91,SSW,192,8.0,-999.0,61,-99.99,,,-99.99,,2013-01-29 19:12:00,
2013-01-29 14:23:00,70.0,55.0,29.91,SW,225,9.0,-999.0,59,-99.99,,,-99.99,,2013-01-29 19:23:00,
2013-01-29 14:33:00,70.0,56.0,29.90,SW,229,10.0,-999.0,62,-99.99,,,-99.99,,2013-01-29 19:33:00,
2013-01-29 14:42:00,70.0,56.0,29.90,SW,229,10.0,-999.0,62,-99.99,,,-99.99,,2013-01-29 19:42:00,
2013-01-29 14:52:00,71.0,57.0,29.89,SW,225,7.0,-999.0,61,-99.99,,,-99.99,,2013-01-29 19:52:00,
2013-01-29 15:03:00,70.0,56.0,29.88,SW,233,7.0,-999.0,61,-99.99,,,-99.99,,2013-01-29 20:03:00,
2013-01-29 15:13:00,70.0,56.0,29.88,SW,233,7.0,-999.0,61,-99.99,,,-99.99,,2013-01-29 20:13:00,
2013-01-29 15:22:00,70.0,56.0,29.88,South,189,7.0,-999.0,62,-99.99,,,-99.99,,2013-01-29 20:22:00,
2013-01-29 15:33:00,71.0,57.0,29.87,WSW,244,5.0,-999.0,61,-99.99,,,-99.99,,2013-01-29 20:33:00,
2013-01-29 15:42:00,71.0,57.0,29.87,WSW,244,5.0,-999.0,61,-99.99,,,-99.99,,2013-01-29 20:42:00,
2013-01-29 15:53:00,71.0,57.0,29.86,SSW,213,5.0,-999.0,61,-99.99,,,-99.99,,2013-01-29 20:53:00,
2013-01-29 16:03:00,71.0,57.0,29.85,South,181,6.0,-999.0,62,-99.99,,,-99.99,,2013-01-29 21:03:00,
2013-01-29 16:12:00,71.0,57.0,29.85,South,181,6.0,-999.0,62,-99.99,,,-99.99,,2013-01-29 21:12:00,
2013-01-29 16:22:00,71.0,57.0,29.85,SSW,204,6.0,-999.0,62,-99.99,,,-99.99,,2013-01-29 21:22:00,
2013-01-29 16:33:00,71.0,58.0,29.83,South,190,6.0,-999.0,63,-99.99,,,-99.99,,2013-01-29 21:33:00,
2013-01-29 16:42:00,71.0,58.0,29.83,South,190,6.0,-999.0,63,-99.99,,,-99.99,,2013-01-29 21:42:00,
2013-01-29 16:52:00,71.0,58.0,29.83,South,169,6.0,-999.0,63,-99.99,,,-99.99,,2013-01-29 21:52:00,
2013-01-29 17:03:00,70.0,57.0,29.82,SSW,194,10.0,-999.0,64,-99.99,,,-99.99,,2013-01-29 22:03:00,
2013-01-29 17:12:00,70.0,57.0,29.82,SSW,194,10.0,-999.0,64,-99.99,,,-99.99,,2013-01-29 22:12:00,
2013-01-29 17:22:00,69.0,57.0,29.80,SSE,161,7.0,-999.0,66,-99.99,,,-99.99,,2013-01-29 22:22:00,
2013-01-29 17:33:00,69.0,58.0,29.81,SW,230,7.0,-999.0,68,-99.99,,,-99.99,,2013-01-29 22:33:00,
2013-01-29 17:42:00,69.0,58.0,29.81,SW,230,7.0,-999.0,68,-99.99,,,-99.99,,2013-01-29 22:42:00,
2013-01-29 17:52:00,69.0,58.0,29.80,SSE,159,4.0,-999.0,68,-99.99,,,-99.99,,2013-01-29 22:52:00,
2013-01-29 18:02:00,68.0,57.0,29.81,SSW,203,4.0,-999.0,69,-99.99,,,-99.99,,2013-01-29 23:02:00,
2013-01-29 18:12:00,68.0,57.0,29.81,SSW,203,4.0,-999.0,69,-99.99,,,-99.99,,2013-01-29 23:12:00,
2013-01-29 18:23:00,68.0,57.0,29.81,SSW,196,6.0,-999.0,69,-99.99,,,-99.99,,2013-01-29 23:23:00,
2013-01-29 18:33:00,68.0,58.0,29.81,SSE,155,7.0,-999.0,70,-99.99,,,-99.99,,2013-01-29 23:33:00,
2013-01-29 18:42:00,68.0,58.0,29.81,SSE,155,7.0,-999.0,70,-99.99,,,-99.99,,2013-01-29 23:42:00,
2013-01-29 18:52:00,67.0,57.0,29.81,South,171,5.0,-999.0,71,-99.99,,,-99.99,,2013-01-29 23:52:00,
2013-01-29 19:03:00,67.0,57.0,29.82,SSW,194,5.0,-999.0,71,-99.99,,,-99.99,,2013-01-30 00:03:00,
2013-01-29 19:12:00,67.0,57.0,29.82,SSW,194,5.0,-999.0,71,-99.99,,,-99.99,,2013-01-30 00:12:00,
2013-01-29 19:22:00,67.0,58.0,29.81,SW,218,6.0,-999.0,72,-99.99,,,-99.99,,2013-01-30 00:22:00,
2013-01-29 19:32:00,67.0,58.0,29.82,SW,223,6.0,-999.0,73,-99.99,,,-99.99,,2013-01-30 00:32:00,
2013-01-29 19:43:00,67.0,58.0,29.82,SW,223,6.0,-999.0,73,-99.99,,,-99.99,,2013-01-30 00:43:00,
2013-01-29 19:52:00,67.0,58.0,29.82,SSW,192,5.0,-999.0,73,-99.99,,,-99.99,,2013-01-30 00:52:00,
2013-01-29 20:02:00,67.0,58.0,29.82,SW,226,7.0,-999.0,74,-99.99,,,-99.99,,2013-01-30 01:02:00,
2013-01-29 20:12:00,67.0,58.0,29.82,SW,226,7.0,-999.0,74,-99.99,,,-99.99,,2013-01-30 01:12:00,
2013-01-29 20:22:00,67.0,58.0,29.81,SW,221,7.0,-999.0,74,-99.99,,,-99.99,,2013-01-30 01:22:00,
2013-01-29 20:32:00,67.0,58.0,29.80,SSW,201,7.0,-999.0,74,-99.99,,,-99.99,,2013-01-30 01:32:00,
2013-01-29 20:42:00,67.0,58.0,29.80,SSW,201,7.0,-999.0,74,-99.99,,,-99.99,,2013-01-30 01:42:00,
2013-01-29 20:52:00,67.0,58.0,29.79,South,178,7.0,-999.0,74,-99.99,,,-99.99,,2013-01-30 01:52:00,
2013-01-29 21:02:00,67.0,59.0,29.78,South,185,7.0,-999.0,75,-99.99,,,-99.99,,2013-01-30 02:02:00,
2013-01-29 21:12:00,67.0,59.0,29.78,South,185,7.0,-999.0,75,-99.99,,,-99.99,,2013-01-30 02:12:00,
2013-01-29 21:22:00,67.0,59.0,29.78,SSE,167,4.0,-999.0,75,-99.99,,,-99.99,,2013-01-30 02:22:00,
2013-01-29 21:33:00,66.0,58.0,29.77,South,181,5.0,-999.0,76,-99.99,,,-99.99,,2013-01-30 02:33:00,
2013-01-29 21:42:00,66.0,58.0,29.77,South,181,5.0,-999.0,76,-99.99,,,-99.99,,2013-01-30 02:42:00,
2013-01-29 21:52:00,66.0,58.0,29.77,South,184,3.0,-999.0,76,-99.99,,,-99.99,,2013-01-30 02:52:00,
2013-01-29 22:03:00,66.0,58.0,29.75,South,182,3.0,-999.0,76,-99.99,,,-99.99,,2013-01-30 03:03:00,
2013-01-29 22:12:00,66.0,58.0,29.75,South,182,3.0,-999.0,76,-99.99,,,-99.99,,2013-01-30 03:12:00,
2013-01-29 22:22:00,66.0,58.0,29.74,South,184,5.0,-999.0,75,-99.99,,,-99.99,,2013-01-30 03:22:00,
2013-01-29 22:32:00,66.0,58.0,29.73,SSE,161,4.0,-999.0,75,-99.99,,,-99.99,,2013-01-30 03:32:00,
2013-01-29 22:42:00,66.0,58.0,29.73,SSE,161,4.0,-999.0,75,-99.99,,,-99.99,,2013-01-30 03:42:00,
2013-01-29 22:52:00,66.0,57.0,29.72,SSW,200,4.0,-999.0,74,-99.99,,,-99.99,,2013-01-30 03:52:00,
2013-01-29 23:02:00,66.0,57.0,29.72,South,186,5.0,-999.0,73,-99.99,,,-99.99,,2013-01-30 04:02:00,
2013-01-29 23:12:00,66.0,57.0,29.72,South,186,5.0,-999.0,73,-99.99,,,-99.99,,2013-01-30 04:12:00,
2013-01-29 23:22:00,67.0,58.0,29.71,WSW,238,7.0,-999.0,72,-99.99,,,-99.99,,2013-01-30 04:22:00,
2013-01-29 23:32:00,67.0,58.0,29.71,WSW,238,7.0,-999.0,72,-99.99,,,-99.99,,2013-01-30 04:32:00,
2013-01-29 23:42:00,67.0,58.0,29.71,WSW,238,7.0,-999.0,72,-99.99,,,-99.99,,2013-01-30 04:42:00,
2013-01-29 23:52:00,67.0,58.0,29.68,South,184,6.0,-999.0,72,-99.99,,,-99.99,,2013-01-30 04:52:00,